This demonstration page uses our WeatherBlox Daily Observations layout. Learn more.

39.92423, -83.80882

Hourly Observations for June 10, 2017

Temp ( °F °C ) Dew Point ( °F °C ) Humidity (%) Winds ( mph kmh ) Pressure ( in mb ) Visibility ( mi km ) Precip ( " mm )
12:58 am 00:58 Mostly Cloudy 68 19.9 56 13.1 65 65 SSW 7 11 29.92 1013 10 16.0934 0 0
1:58 am 01:58 Mostly Cloudy 69 20.4 55 12.7 61 61 SSW 6 9 29.92 1013 10 16.0934 0 0
2:58 am 02:58 Clear 64 18 55 12.8 72 72 SW 8 13 29.93 1014 10 16.0934 0 0
3:58 am 03:58 Cloudy 66 18.9 56 13.1 69 69 SW 9 15 29.93 1014 10 16.0934 0 0
4:58 am 04:58 Mostly Cloudy 67 19.6 55 12.9 65 65 SW 8 13 29.95 1014 10 16.0934 0 0
5:58 am 05:58 Mostly Cloudy 64 17.6 55 13 75 75 SW 9 15 29.96 1015 10 16.0934 0 0
6:58 am 06:58 Partly Cloudy 65 18.1 56 13.5 75 75 SW 8 13 29.98 1015 10 16.0934 0 0
7:58 am 07:58 Sunny 68 19.9 57 14 69 69 SW 9 15 30 1016 10 16.0934 0 0
8:58 am 08:58 Sunny 71 21.9 57 13.8 60 60 SW 9 15 30.02 1017 10 16.0934 0 0
9:58 am 09:58 Sunny 74 23.4 57 14.1 56 56 WSW 10 17 30.04 1017 10 16.0934 0 0
10:58 am 10:58 Sunny 78 25.6 57 14 49 49 WSW 12 19 30.02 1017 10 16.0934 0 0
11:58 am 11:58 Mostly Sunny 80 26.7 56 13.1 43 43 WSW 13 20 30.02 1017 10 16.0934 0 0
12:58 pm 12:58 Mostly Sunny 82 27.8 55 12.9 40 40 SW 13 20 30.02 1017 10 16.0934 0 0
1:16 pm 13:16 Partly Cloudy 82 28 54 12 37 37 SW 15 24 30.02 1017 10 16.0934 0 0
1:58 pm 13:58 Mostly Sunny 83 28.2 51 10.6 33 33 WSW 14 22 30.01 1016 10 16.0934 0 0
2:58 pm 14:58 Partly Cloudy 83 28.1 53 11.4 35 35 SW 14 22 30 1016 10 16.0934 0 0
3:58 pm 15:58 Mostly Sunny 85 29.2 53 11.9 34 34 SSW 7 11 29.99 1016 10 16.0934 0 0
4:40 pm 16:40 Sunny 84 29 54 12 35 35 S 15 24 29.97 1015 10 16.0934 0 0
4:58 pm 16:58 Sunny 85 29.5 51 10.6 31 31 SSW 16 26 29.97 1015 10 16.0934 0 0.0254
5:58 pm 17:58 Sunny 84 29 52 11 33 33 SW 10 17 29.96 1015 10 16.0934 0 0.0254
6:58 pm 18:58 Sunny 84 28.8 53 11.5 34 34 SSW 13 20 29.96 1015 10 16.0934 0 0.0254
7:58 pm 19:58 Sunny 82 27.7 55 12.5 39 39 S 10 17 29.95 1014 10 16.0934 0 0.0254
8:58 pm 20:58 Sunny 78 25.7 56 13.6 47 47 S 7 11 29.97 1015 10 16.0934 0 0
9:58 pm 21:58 Clear 76 24.7 57 13.7 50 50 S 8 13 29.98 1015 10 16.0934 0 0
10:58 pm 22:58 Clear 76 24.2 57 14 53 53 SSW 8 13 30 1016 10 16.0934 0 0
11:58 pm 23:58 Clear 73 22.7 58 14.2 59 59 S 7 11 30.01 1016 10 16.0934 0 0

Powered by AerisWeather